Location: Rzeszów
(50.0490°N, 21.9990°E)
Time: 04:43:22
(UTC+01:00)

ISS - Visible Passes

Search period start: 24 November 2017 00:00
Search period end: 04 December 2017 00:00
Orbit: 402 x 407 km, 51.6° (Epoch: 24 November)

Date Brightness Start Highest point End Pass type
(mag) Time Alt. Az. Time Alt. Az. Time Alt. Az.
27 Nov -1.2 17:34:51 10° SSE 17:35:10 11° SSE 17:35:10 11° SSE visible
28 Nov -1.2 18:17:01 10° SW 18:17:50 16° SSW 18:17:50 16° SSW visible
29 Nov -2.3 17:25:09 10° SSW 17:27:45 24° SSE 17:27:45 24° SSE visible
30 Nov -1.6 16:33:41 10° S 16:35:40 15° SE 16:37:36 10° ESE visible
30 Nov -2.0 18:08:24 10° WSW 18:10:15 30° SW 18:10:15 30° SW visible
01 Dec -3.2 17:16:12 10° SW 17:19:20 42° SSE 17:20:01 36° ESE visible
01 Dec -0.3 18:52:27 10° W 18:52:40 11° W 18:52:40 11° W visible
02 Dec -2.4 16:24:13 10° SSW 16:27:03 27° SE 16:29:44 11° E visible
02 Dec -2.7 18:00:01 10° WSW 18:02:23 45° WSW 18:02:23 45° WSW visible
03 Dec -3.8 17:07:37 10° WSW 17:10:53 71° SSE 17:12:04 36° E visible
03 Dec -0.5 18:44:10 10° W 18:44:42 14° W 18:44:42 14° W visible
